DT_LEITURA;HR_LEITURA;MED-PressaoAtm[hPa];VAL-TempExt[oC];VAL-UmidExt[%UR];VAL-TempInt[oC];VAL-UmidInt[%UR];Dir-Vento[grau];Vel-Vento[m/s];Precipitação[mm/h]
22/08/2026;00:00:00;1013,3;-34,6;0;29,1;73;131;1,2;0,0
22/08/2026;00:05:00;1013,2;-34,6;0;29,1;74;157;1,0;0,0
22/08/2026;00:10:00;1013,2;-34,6;0;29,1;74;150;0,7;0,0
22/08/2026;00:15:00;1013,2;-34,7;0;29,1;74;159;0,7;0,0
22/08/2026;00:20:00;1013,1;-34,7;0;29,1;73;164;0,8;0,0
22/08/2026;00:25:00;1013,0;-34,7;0;29,1;73;255;0,3;0,0
22/08/2026;00:30:00;1013,0;-34,7;0;29,1;73;221;0,3;0,0
22/08/2026;00:35:00;1013,0;-34,8;0;29,1;73;308;0,3;0,0
22/08/2026;00:40:00;1012,9;-34,8;0;29,0;73;7;0,5;0,0
22/08/2026;00:45:00;1012,8;-34,8;0;29,0;74;7;0,4;0,0
22/08/2026;00:50:00;1012,7;-34,9;0;29,0;74;26;0,3;0,0
22/08/2026;00:55:00;1012,7;-34,9;0;28,9;74;19;0,5;0,0
22/08/2026;01:00:00;1012,7;-35,0;0;28,9;74;60;0,3;0,0
22/08/2026;01:05:00;1012,6;-35,0;0;28,8;74;28;0,4;0,0
22/08/2026;01:10:00;1012,4;-35,1;0;28,8;74;25;0,4;0,0
22/08/2026;01:15:00;1012,4;-35,1;0;28,7;75;18;0,5;0,0
22/08/2026;01:20:00;1012,3;-35,2;0;28,7;75;53;0,4;0,0
22/08/2026;01:25:00;1012,2;-35,2;0;28,7;75;12;0,4;0,0
22/08/2026;01:30:00;1012,2;-35,3;0;28,6;75;9;0,4;0,0
22/08/2026;01:35:00;1012,2;-35,3;0;28,6;75;19;0,4;0,0
22/08/2026;01:40:00;1012,2;-35,4;0;28,5;75;14;0,5;0,0
22/08/2026;01:45:00;1012,2;-35,4;0;28,5;75;22;0,5;0,0
22/08/2026;01:50:00;1012,2;-35,5;0;28,5;76;16;0,5;0,0
22/08/2026;01:55:00;1012,3;-35,5;0;28,4;76;352;0,5;0,0
22/08/2026;02:00:00;1012,3;-35,5;0;28,4;76;15;0,5;0,0
22/08/2026;02:05:00;1012,3;-35,6;0;28,4;76;5;0,3;0,0
22/08/2026;02:10:00;1012,2;-35,6;0;28,4;76;1;0,6;0,0
22/08/2026;02:15:00;1012,1;-35,6;0;28,4;76;358;0,5;0,0
22/08/2026;02:20:00;1012,0;-35,7;0;28,3;76;26;0,4;0,0
22/08/2026;02:25:00;1011,9;-35,7;0;28,3;77;5;0,5;0,0
22/08/2026;02:30:00;1011,8;-35,7;0;28,3;77;24;0,5;0,0
22/08/2026;02:35:00;1011,8;-35,7;0;28,3;77;2;0,6;0,0
22/08/2026;02:40:00;1011,7;-35,8;0;28,2;77;5;0,5;0,0
22/08/2026;02:45:00;1011,7;-35,8;0;28,2;77;2;0,5;0,0
22/08/2026;02:50:00;1011,8;-35,8;0;28,2;77;353;0,4;0,0
22/08/2026;02:55:00;1011,7;-35,8;0;28,1;77;10;0,5;0,0
22/08/2026;03:00:00;1011,7;-35,9;0;28,1;78;290;0,6;0,0
22/08/2026;03:05:00;1011,7;-35,9;0;28,1;78;318;0,4;0,0
22/08/2026;03:10:00;1011,7;-35,9;0;28,0;78;39;0,4;0,0
22/08/2026;03:15:00;1011,7;-35,9;0;28,0;78;79;0,3;0,0
22/08/2026;03:20:00;1011,7;-36,0;0;27,9;78;10;0,6;0,0
22/08/2026;03:25:00;1011,7;-36,0;0;27,9;78;356;0,5;0,0
22/08/2026;03:30:00;1011,8;-36,0;0;27,9;78;322;0,5;0,0
22/08/2026;03:35:00;1011,8;-36,0;0;27,8;78;22;0,5;0,0
22/08/2026;03:40:00;1011,8;-36,0;0;27,8;78;339;0,5;0,0
22/08/2026;03:45:00;1011,9;-36,1;0;27,8;78;313;0,3;0,0
22/08/2026;03:50:00;1012,0;-36,1;0;27,7;79;84;0,2;0,0
22/08/2026;03:55:00;1012,0;-36,1;0;27,7;79;121;0,3;0,0
22/08/2026;04:00:00;1012,0;-36,1;0;27,7;79;193;0,3;0,0
22/08/2026;04:05:00;1012,0;-36,1;0;27,7;79;273;0,3;0,0
22/08/2026;04:10:00;1012,1;-36,1;0;27,6;79;330;0,4;0,0
22/08/2026;04:15:00;1012,1;-36,2;0;27,6;79;23;0,3;0,0
22/08/2026;04:20:00;1012,2;-36,2;0;27,5;79;316;0,5;0,0
22/08/2026;04:25:00;1012,2;-36,2;0;27,4;79;338;0,4;0,0
22/08/2026;04:30:00;1012,2;-36,2;0;27,4;80;1;0,5;0,0
22/08/2026;04:35:00;1012,2;-36,2;0;27,3;80;51;0,4;0,0
22/08/2026;04:40:00;1012,3;-36,2;0;27,2;80;6;0,4;0,0
22/08/2026;04:45:00;1012,3;-36,3;0;27,2;80;6;0,4;0,0
22/08/2026;04:50:00;1012,3;-36,3;0;27,1;80;6;0,5;0,0
22/08/2026;04:55:00;1012,3;-36,3;0;27,1;81;16;0,4;0,0
22/08/2026;05:00:00;1012,3;-36,3;0;27,0;81;354;0,5;0,0
22/08/2026;05:05:00;1012,3;-36,3;0;26,9;81;14;0,4;0,0
22/08/2026;05:10:00;1012,3;-36,3;0;26,9;81;359;0,5;0,0
22/08/2026;05:15:00;1012,4;-36,3;0;26,9;81;9;0,4;0,0
22/08/2026;05:20:00;1012,4;-36,3;0;26,8;82;352;0,4;0,0
22/08/2026;05:25:00;1012,4;-36,3;0;26,8;82;33;0,4;0,0
22/08/2026;05:30:00;1012,5;-36,3;0;26,8;82;13;0,5;0,0
22/08/2026;05:35:00;1012,6;-36,3;0;26,7;82;5;0,5;0,0
22/08/2026;05:40:00;1012,6;-36,3;0;26,7;82;360;0,6;0,0
22/08/2026;05:45:00;1012,6;-36,4;0;26,7;82;12;0,5;0,0
22/08/2026;05:50:00;1012,6;-36,4;0;26,6;82;27;0,4;0,0
22/08/2026;05:55:00;1012,6;-36,4;0;26,6;83;43;0,5;0,0
22/08/2026;06:00:00;1012,6;-36,4;0;26,6;83;332;0,4;0,0
22/08/2026;06:05:00;1012,6;-36,4;0;26,6;83;5;0,5;0,0
22/08/2026;06:10:00;1012,6;-36,4;0;26,5;83;14;0,5;0,0
22/08/2026;06:15:00;1012,7;-36,4;0;26,5;83;17;0,4;0,0
22/08/2026;06:20:00;1012,7;-36,4;0;26,5;83;358;0,5;0,0
22/08/2026;06:25:00;1012,6;-36,4;0;26,5;83;16;0,6;0,0
22/08/2026;06:30:00;1012,7;-36,4;0;26,4;83;4;0,5;0,0
22/08/2026;06:35:00;1012,7;-36,4;0;26,4;83;19;0,4;0,0
22/08/2026;06:40:00;1012,8;-36,4;0;26,4;83;5;0,6;0,0
22/08/2026;06:45:00;1012,8;-36,4;0;26,4;84;11;0,6;0,0
22/08/2026;06:50:00;1012,9;-36,4;0;26,4;84;347;0,5;0,0
22/08/2026;06:55:00;1013,0;-36,4;0;26,4;84;3;0,6;0,0
22/08/2026;07:00:00;1013,0;-36,4;0;26,4;84;30;0,5;0,0
22/08/2026;07:05:00;1013,0;-36,4;0;26,4;84;9;0,5;0,0
22/08/2026;07:10:00;1013,2;-36,4;0;26,5;84;50;0,4;0,0
22/08/2026;07:15:00;1013,3;-36,4;0;26,5;84;48;0,3;0,0
22/08/2026;07:20:00;1013,3;-36,4;0;26,6;84;95;0,2;0,0
22/08/2026;07:25:00;1013,3;-36,4;0;26,7;83;102;0,3;0,0
22/08/2026;07:30:00;1013,4;-36,4;0;26,8;83;47;0,4;0,0
22/08/2026;07:35:00;1013,4;-36,4;0;26,8;83;12;0,3;0,0
22/08/2026;07:40:00;1013,5;-36,4;0;26,9;83;139;0,5;0,0
22/08/2026;07:45:00;1013,6;-36,4;0;27,0;83;45;0,3;0,0
22/08/2026;07:50:00;1013,7;-36,4;0;27,0;83;351;0,5;0,0
22/08/2026;07:55:00;1013,7;-36,4;0;27,1;82;253;0,6;0,0
22/08/2026;08:00:00;1013,8;-36,4;0;27,3;82;76;0,3;0,0
22/08/2026;08:05:00;1013,8;-36,4;0;27,4;82;324;0,5;0,0
22/08/2026;08:10:00;1013,9;-36,4;0;27,6;82;310;0,5;0,0
22/08/2026;08:15:00;1013,9;-36,4;0;27,7;81;186;0,4;0,0
22/08/2026;08:20:00;1013,9;-36,4;0;27,9;81;299;0,5;0,0
22/08/2026;08:25:00;1014,0;-36,4;0;28,0;80;103;0,4;0,0
22/08/2026;08:30:00;1014,0;-36,3;0;28,2;80;173;0,6;0,0
22/08/2026;08:35:00;1014,1;-36,3;0;28,4;80;109;0,7;0,0
22/08/2026;08:40:00;1014,1;-36,3;0;28,5;80;124;0,5;0,0
22/08/2026;08:45:00;1014,1;-36,2;0;28,7;79;102;0,5;0,0
22/08/2026;08:50:00;1014,2;-36,2;0;28,9;78;279;0,5;0,0
22/08/2026;08:55:00;1014,2;-36,1;0;29,1;77;140;0,6;0,0
22/08/2026;09:00:00;1014,3;-36,0;0;29,3;77;167;0,6;0,0
22/08/2026;09:05:00;1014,3;-35,8;0;29,6;77;141;0,8;0,0
22/08/2026;09:10:00;1014,4;-35,6;0;29,8;76;145;1,3;0,0
22/08/2026;09:15:00;1014,4;-35,1;0;30,0;75;156;0,8;0,0
22/08/2026;09:20:00;1014,4;-34,4;0;30,3;74;158;1,2;0,0
22/08/2026;09:25:00;1014,4;-33,3;0;30,6;72;153;1,4;0,0
22/08/2026;09:30:00;1014,4;-31,9;0;30,8;70;137;1,7;0,0
22/08/2026;09:35:00;1014,4;-30,2;0;31,0;69;167;1,2;0,0
22/08/2026;09:40:00;1014,4;-28,3;0;31,3;68;160;1,0;0,0
22/08/2026;09:45:00;1014,4;-27,1;0;31,7;66;178;1,1;0,0
22/08/2026;09:50:00;1014,4;-26,5;0;31,9;66;188;0,7;0,0
22/08/2026;09:55:00;1014,3;-25,5;0;32,4;64;145;1,1;0,0
22/08/2026;10:00:00;1014,4;-24,8;0;32,8;62;137;1,5;0,0
22/08/2026;10:05:00;1014,4;-24,9;0;33,1;60;138;1,8;0,0
22/08/2026;10:10:00;1014,3;-25,1;0;33,3;60;149;1,2;0,0
22/08/2026;10:15:00;1014,2;-25,4;0;33,5;59;168;1,1;0,0
22/08/2026;10:20:00;1014,2;-25,9;0;33,8;59;141;1,3;0,0
22/08/2026;10:25:00;1014,1;-26,4;0;34,1;56;137;2,2;0,0
22/08/2026;10:30:00;1014,1;-27,2;0;33,9;57;152;1,5;0,0
22/08/2026;10:35:00;1014,1;-27,6;0;34,1;58;140;1,6;0,0
22/08/2026;10:40:00;1014,0;-27,9;0;34,4;55;137;2,0;0,0
22/08/2026;10:45:00;1014,0;-28,0;0;34,6;55;153;1,4;0,0
22/08/2026;10:50:00;1014,0;-28,0;0;34,9;54;146;2,0;0,0
22/08/2026;10:55:00;1014,0;-28,1;0;35,1;53;146;2,0;0,0
22/08/2026;11:00:00;1014,0;-28,1;0;35,2;53;138;2,1;0,0
22/08/2026;11:05:00;1014,0;-28,1;0;35,4;51;129;2,1;0,0
22/08/2026;11:10:00;1013,9;-28,0;0;35,6;51;139;1,9;0,0
22/08/2026;11:15:00;1013,9;-28,2;0;35,7;51;135;1,9;0,0
22/08/2026;11:20:00;1013,9;-27,7;0;35,6;51;141;1,8;0,0
22/08/2026;11:25:00;1013,9;-28,4;0;35,7;51;149;1,7;0,0
22/08/2026;11:30:00;1013,8;-28,9;0;35,8;51;143;1,6;0,0
22/08/2026;11:35:00;1013,8;-29,2;0;35,9;51;136;1,7;0,0
22/08/2026;11:40:00;1013,8;-29,4;0;36,0;50;133;1,8;0,0
22/08/2026;11:45:00;1013,7;-29,4;0;36,1;50;133;1,4;0,0
22/08/2026;11:50:00;1013,7;-29,4;0;36,1;50;150;1,7;0,0
22/08/2026;11:55:00;1013,6;-29,6;0;36,0;50;132;2,0;0,0
22/08/2026;12:00:00;1013,5;-30,0;0;35,8;50;139;1,3;0,0
22/08/2026;12:05:00;1013,4;-30,1;0;36,1;50;140;1,5;0,0
22/08/2026;12:10:00;1013,4;-30,2;0;36,2;49;134;1,8;0,0
22/08/2026;12:15:00;1013,2;-30,2;0;36,3;50;158;1,5;0,0
22/08/2026;12:20:00;1013,2;-29,9;0;36,4;50;133;1,6;0,0
22/08/2026;12:25:00;1013,2;-29,0;0;36,5;49;146;1,5;0,0
22/08/2026;12:30:00;1013,1;-28,4;0;36,7;48;149;1,7;0,0
22/08/2026;12:35:00;1013,1;-28,1;0;36,9;48;139;2,2;0,0
22/08/2026;12:40:00;1013,0;-28,1;0;37,0;47;153;1,5;0,0
22/08/2026;12:45:00;1013,0;-27,2;0;37,0;48;142;1,7;0,0
22/08/2026;12:50:00;1012,9;-26,4;0;37,2;47;131;1,5;0,0
22/08/2026;12:55:00;1012,8;-26,1;0;37,4;47;132;1,8;0,0
22/08/2026;13:00:00;1012,7;-26,1;0;37,6;46;146;1,7;0,0
22/08/2026;13:05:00;1012,6;-26,1;0;37,8;46;145;1,5;0,0
22/08/2026;13:10:00;1012,5;-26,7;0;37,9;45;131;1,5;0,0
22/08/2026;13:15:00;1012,3;-27,4;0;38,1;45;143;1,2;0,0
22/08/2026;13:20:00;1012,2;-27,8;0;38,3;44;139;1,7;0,0
22/08/2026;13:25:00;1012,2;-27,6;0;38,4;43;143;1,7;0,0
22/08/2026;13:30:00;1012,1;-27,7;0;38,4;43;133;1,7;0,0
22/08/2026;13:35:00;1011,9;-25,7;0;38,6;43;130;1,5;0,0
22/08/2026;13:40:00;1011,9;-26,9;0;38,8;43;132;1,7;0,0
22/08/2026;13:45:00;1011,8;-26,4;0;39,0;42;127;1,5;0,0
22/08/2026;13:50:00;1011,7;-26,5;0;39,2;42;140;1,5;0,0
22/08/2026;13:55:00;1011,6;-27,7;0;39,5;42;136;1,4;0,0
22/08/2026;14:00:00;1011,6;-26,4;0;39,7;42;126;1,2;0,0
22/08/2026;14:05:00;1011,4;-26,0;0;39,9;42;151;1,0;0,0
22/08/2026;14:10:00;1011,4;-25,9;0;40,0;41;131;1,5;0,0
22/08/2026;14:15:00;1011,3;-25,6;0;39,9;40;133;1,6;0,0
22/08/2026;14:20:00;1011,3;-25,3;0;39,6;40;137;1,2;0,0
22/08/2026;14:25:00;1011,3;-25,3;0;39,7;40;136;1,3;0,0
22/08/2026;14:30:00;1011,2;-25,5;0;39,9;39;150;1,2;0,0
22/08/2026;14:35:00;1011,2;-25,5;0;39,9;40;120;1,4;0,0
22/08/2026;14:40:00;1011,2;-25,7;0;39,7;40;138;1,2;0,0
22/08/2026;14:45:00;1011,1;-26,5;0;39,8;41;138;1,2;0,0
22/08/2026;14:50:00;1011,1;-26,1;0;39,8;41;129;1,2;0,0
22/08/2026;14:55:00;1011,1;-25,6;0;39,8;40;147;0,9;0,0
22/08/2026;15:00:00;1011,0;-25,2;0;40,1;40;147;1,0;0,0
22/08/2026;15:05:00;1011,0;-25,2;0;40,4;40;136;1,1;0,0
22/08/2026;15:10:00;1011,0;-25,1;0;40,7;39;125;1,6;0,0
22/08/2026;15:15:00;1011,0;-25,3;0;40,8;38;121;1,1;0,0
22/08/2026;15:20:00;1011,0;-25,4;0;40,4;38;125;1,2;0,0
22/08/2026;15:25:00;1011,0;-25,4;0;39,7;39;130;1,1;0,0
22/08/2026;15:30:00;1010,9;-25,7;0;39,2;41;122;1,1;0,0
22/08/2026;15:35:00;1010,8;-25,7;0;39,2;41;139;1,5;0,0
22/08/2026;15:40:00;1010,8;-25,6;0;39,0;41;130;1,2;0,0
22/08/2026;15:45:00;1010,7;-25,8;0;38,9;41;140;1,1;0,0
22/08/2026;15:50:00;1010,8;-25,7;0;38,9;42;118;1,2;0,0
22/08/2026;15:55:00;1010,7;-26,6;0;38,9;41;128;1,2;0,0
22/08/2026;16:00:00;1010,7;-27,1;0;38,6;41;116;0,9;0,0
22/08/2026;16:05:00;1010,6;-26,4;0;38,2;42;128;1,0;0,0
22/08/2026;16:10:00;1010,6;-25,7;0;38,0;43;126;1,2;0,0
22/08/2026;16:15:00;1010,6;-25,8;0;38,2;42;121;1,1;0,0
22/08/2026;16:20:00;1010,5;-25,7;0;38,3;42;132;1,5;0,0
22/08/2026;16:25:00;1010,4;-25,7;0;38,2;43;131;1,1;0,0
22/08/2026;16:30:00;1010,4;-25,9;0;37,9;44;126;1,1;0,0
22/08/2026;16:35:00;1010,3;-25,9;0;37,4;45;123;1,2;0,0
22/08/2026;16:40:00;1010,3;-25,9;0;36,9;46;137;1,4;0,0
22/08/2026;16:45:00;1010,3;-26,1;0;36,4;47;133;1,3;0,0
22/08/2026;16:50:00;1010,2;-26,0;0;36,0;47;133;1,3;0,0
22/08/2026;16:55:00;1010,2;-26,0;0;35,7;48;140;1,2;0,0
22/08/2026;17:00:00;1010,2;-26,1;0;35,4;48;133;1,4;0,0
22/08/2026;17:05:00;1010,2;-26,0;0;35,2;49;140;1,3;0,0
22/08/2026;17:10:00;1010,2;-25,9;0;35,0;50;147;1,3;0,0
22/08/2026;17:15:00;1010,2;-26,0;0;34,8;50;132;1,4;0,0
22/08/2026;17:20:00;1010,3;-25,8;0;34,6;50;130;1,3;0,0
22/08/2026;17:25:00;1010,3;-25,8;0;34,5;51;132;1,2;0,0
22/08/2026;17:30:00;1010,3;-25,9;0;34,3;52;129;1,2;0,0
22/08/2026;17:35:00;1010,4;-25,9;0;34,2;52;135;1,3;0,0
22/08/2026;17:40:00;1010,4;-25,8;0;34,2;53;128;1,2;0,0
22/08/2026;17:45:00;1010,4;-26,0;0;34,1;53;119;1,5;0,0
22/08/2026;17:50:00;1010,4;-25,9;0;33,9;54;131;1,4;0,0
22/08/2026;17:55:00;1010,4;-25,9;0;33,8;54;129;1,3;0,0
22/08/2026;18:00:00;1010,5;-26,2;0;33,6;54;124;1,3;0,0
22/08/2026;18:05:00;1010,7;-26,0;0;33,5;55;131;1,3;0,0
22/08/2026;18:10:00;1010,7;-25,9;0;33,4;56;138;1,1;0,0
22/08/2026;18:15:00;1010,7;-26,1;0;33,3;56;136;1,2;0,0
22/08/2026;18:20:00;1010,8;-26,1;0;33,2;57;131;1,2;0,0
22/08/2026;18:25:00;1010,9;-26,2;0;33,1;57;133;1,3;0,0
22/08/2026;18:30:00;1010,9;-26,6;0;33,0;58;133;1,5;0,0
22/08/2026;18:35:00;1011,0;-26,9;0;32,8;58;142;1,5;0,0
22/08/2026;18:40:00;1011,1;-27,2;0;32,6;59;134;1,3;0,0
22/08/2026;18:45:00;1011,1;-27,6;0;32,5;59;139;1,4;0,0
22/08/2026;18:50:00;1011,2;-27,8;0;32,4;60;149;1,0;0,0
22/08/2026;18:55:00;1011,3;-28,1;0;32,2;60;145;1,2;0,0
22/08/2026;19:00:00;1011,4;-28,5;0;32,1;61;140;1,2;0,0
22/08/2026;19:05:00;1011,3;-28,6;0;32,1;61;142;1,2;0,0
22/08/2026;19:10:00;1011,2;-28,8;0;32,0;61;155;1,1;0,0
22/08/2026;19:15:00;1011,2;-29,0;0;31,9;62;153;1,0;0,0
22/08/2026;19:20:00;1011,3;-29,1;0;31,9;62;151;0,6;0,0
22/08/2026;19:25:00;1011,4;-29,1;0;31,9;62;168;0,8;0,0
22/08/2026;19:30:00;1011,5;-29,1;0;31,9;62;140;1,5;0,0
22/08/2026;19:35:00;1011,6;-29,1;0;31,8;63;132;1,4;0,0
22/08/2026;19:40:00;1011,7;-29,3;0;31,6;64;135;1,3;0,0
22/08/2026;19:45:00;1011,9;-29,5;0;31,4;66;141;0,9;0,0
22/08/2026;19:50:00;1012,0;-29,4;0;31,3;67;128;1,1;0,0
22/08/2026;19:55:00;1012,0;-29,4;0;31,3;67;135;0,6;0,0
22/08/2026;20:00:00;1012,1;-29,4;0;31,2;68;148;0,5;0,0
22/08/2026;20:05:00;1012,2;-29,3;0;31,2;68;150;0,5;0,0
22/08/2026;20:10:00;1012,3;-29,3;0;31,1;68;54;0,3;0,0
22/08/2026;20:15:00;1012,4;-29,5;0;31,0;68;110;0,4;0,0
22/08/2026;20:20:00;1012,4;-29,3;0;30,9;70;89;0,4;0,0
22/08/2026;20:25:00;1012,4;-29,1;0;30,9;69;160;0,4;0,0
22/08/2026;20:30:00;1012,4;-29,2;0;30,9;69;257;0,2;0,0
22/08/2026;20:35:00;1012,4;-29,0;0;30,8;68;334;0,5;0,0
22/08/2026;20:40:00;1012,4;-28,9;0;30,8;68;152;1,0;0,0
22/08/2026;20:45:00;1012,4;-29,1;0;30,7;69;206;0,5;0,0
22/08/2026;20:50:00;1012,5;-28,9;0;30,7;68;290;0,4;0,0
22/08/2026;20:55:00;1012,5;-28,9;0;30,7;68;23;0,4;0,0
22/08/2026;21:00:00;1012,5;-29,1;0;30,6;68;319;0,5;0,0
22/08/2026;21:05:00;1012,6;-29,0;0;30,6;68;309;0,6;0,0
22/08/2026;21:10:00;1012,7;-29,3;0;30,5;68;355;0,5;0,0
22/08/2026;21:15:00;1012,7;-29,7;0;30,4;68;318;0,4;0,0
22/08/2026;21:20:00;1012,7;-29,8;0;30,3;68;298;0,4;0,0
22/08/2026;21:25:00;1012,8;-29,9;0;30,3;69;355;0,6;0,0
22/08/2026;21:30:00;1012,8;-30,3;0;30,2;69;323;0,6;0,0
22/08/2026;21:35:00;1012,8;-30,4;0;30,2;69;346;0,5;0,0
22/08/2026;21:40:00;1012,9;-30,6;0;30,1;69;324;0,7;0,0
22/08/2026;21:45:00;1012,9;-30,9;0;30,1;69;350;0,6;0,0
22/08/2026;21:50:00;1013,0;-31,0;0;30,0;69;349;0,5;0,0
22/08/2026;21:55:00;1013,0;-31,2;0;30,0;69;310;0,6;0,0
22/08/2026;22:00:00;1013,0;-31,5;0;29,9;69;295;0,7;0,0
22/08/2026;22:05:00;1013,1;-31,6;0;29,9;69;222;0,5;0,0
22/08/2026;22:10:00;1013,2;-31,7;0;29,8;69;355;0,7;0,0
22/08/2026;22:15:00;1013,2;-31,9;0;29,8;69;308;0,6;0,0
22/08/2026;22:20:00;1013,3;-32,0;0;29,8;69;325;0,6;0,0
22/08/2026;22:25:00;1013,3;-32,1;0;29,7;69;347;0,6;0,0
22/08/2026;22:30:00;1013,4;-32,3;0;29,7;69;287;0,6;0,0
22/08/2026;22:35:00;1013,4;-32,3;0;29,7;69;337;0,6;0,0
22/08/2026;22:40:00;1013,4;-32,4;0;29,6;70;333;0,6;0,0
22/08/2026;22:45:00;1013,4;-32,6;0;29,6;70;359;0,5;0,0
22/08/2026;22:50:00;1013,4;-32,7;0;29,6;70;4;0,5;0,0
22/08/2026;22:55:00;1013,4;-32,8;0;29,5;70;334;0,6;0,0
22/08/2026;23:00:00;1013,4;-33,0;0;29,5;70;3;0,6;0,0
22/08/2026;23:05:00;1013,4;-33,1;0;29,4;71;319;0,6;0,0
22/08/2026;23:10:00;1013,3;-33,2;0;29,3;71;298;0,6;0,0
22/08/2026;23:15:00;1013,3;-33,4;0;29,3;71;329;0,6;0,0
22/08/2026;23:20:00;1013,3;-33,5;0;29,2;72;354;0,7;0,0
22/08/2026;23:25:00;1013,3;-33,6;0;29,1;72;305;0,6;0,0
22/08/2026;23:30:00;1013,3;-33,7;0;29,1;72;254;0,6;0,0
22/08/2026;23:35:00;1013,3;-33,8;0;29,1;72;287;0,6;0,0
22/08/2026;23:40:00;1013,3;-33,9;0;29,0;72;351;0,7;0,0
22/08/2026;23:45:00;1013,3;-34,0;0;29,0;72;314;0,5;0,0
22/08/2026;23:50:00;1013,2;-34,1;0;29,0;73;280;0,4;0,0
22/08/2026;23:55:00;1013,2;-34,1;0;29,0;72;1;0,6;0,0
